Wind_Speed
16 16 15 15 15 15 16 16 15 15 15 14 12 10 8 7 6 4 4 4 5 6 6 7 8 8 9 9 8 9 9 8 8 8 8 8 8 9 9 9 9 9 10
15 15 15 15 15 15 16 16 16 16 15 14 13 11 10 8 7 6 5 5 5 5 6 8 9 9 10 10 10 10 10 10 10 10 10 10 10 10 10 11 10 11 11
14 15 15 15 15 15 16 16 16 16 15 14 12 12 12 10 8 8 7 5 5 5 6 7 8 9 10 10 10 11 11 11 11 12 12 12 12 12 12 12 12 12 12
13 14 15 15 15 15 16 16 16 16 16 15 13 13 12 11 10 9 7 6 6 6 6 6 7 8 9 10 10 10 11 12 12 12 12 12 13 13 13 13 13 13 14
13 14 15 15 15 15 15 16 16 16 16 16 14 13 13 12 11 10 9 8 7 6 6 6 7 8 8 9 10 11 11 12 12 13 13 13 14 14 14 14 14 14 15
12 13 13 14 14 15 15 16 16 17 16 16 15 14 13 13 12 11 9 9 9 8 7 8 8 8 9 10 11 11 11 12 13 13 14 14 14 15 15 15 15 15 16
12 12 12 13 14 14 15 16 16 17 16 16 16 14 13 13 13 12 10 9 9 10 9 8 9 10 10 11 12 13 12 12 13 15 15 15 16 16 16 16 16 16 16
11 12 12 13 14 14 15 15 16 16 17 16 16 15 14 13 13 12 11 11 10 10 10 10 10 10 10 11 11 12 12 13 14 14 15 16 16 16 17 17 17 18 18
12 12 12 12 13 14 15 15 16 16 16 16 15 15 14 13 13 12 12 12 12 11 11 11 11 11 11 11 11 11 12 13 13 14 15 16 16 17 17 18 19 19 19
12 12 12 12 13 14 14 15 16 16 16 16 15 15 15 14 14 13 13 13 13 12 13 12 12 12 12 12 12 12 13 13 14 14 14 15 16 16 17 18 19 20 20
13 13 12 12 12 13 14 15 15 15 15 15 15 15 16 16 15 15 15 15 14 14 14 14 14 14 15 14 14 14 14 15 15 16 16 16 16 17 18 19 19 19 20
15 15 15 12 14 14 14 15 16 16 16 15 16 16 16 16 16 17 17 16 16 16 15 15 15 15 15 15 15 16 16 16 16 17 17 17 17 18 18 19 19 20 21
16 17 16 15 15 16 16 16 16 16 16 16 16 17 17 17 17 18 19 19 19 18 17 17 17 17 16 16 16 16 17 18 18 17 18 18 18 19 19 20 21 22 22
18 19 18 17 17 17 17 17 17 17 17 17 18 17 17 18 18 19 19 20 20 19 19 19 18 18 18 18 18 17 18 18 19 19 19 19 20 21 21 22 22 23 23
21 20 20 20 18 18 18 18 19 19 19 18 18 18 19 19 19 20 21 21 21 20 20 20 20 20 19 19 20 20 19 20 20 21 21 21 22 23 23 23 24 25 25
23 23 22 22 21 20 20 20 20 20 21 20 19 19 20 20 21 22 23 23 24 23 22 22 23 23 22 22 22 22 22 21 22 22 22 22 23 23 23 24 24 25 26
25 25 24 24 23 23 22 22 22 22 22 22 21 21 22 22 23 23 24 25 26 26 26 25 25 25 25 24 25 25 24 23 23 23 24 23 23 23 24 24 25 26 27
27 27 26 26 25 25 25 24 24 24 24 24 24 24 25 25 25 25 26 26 27 28 28 28 27 27 27 26 26 26 26 25 24 24 24 24 24 24 25 25 26 27 27
29 28 28 28 27 26 27 27 26 27 27 27 27 27 28 28 28 28 29 29 30 30 30 30 30 29 29 29 29 28 27 27 27 26 26 26 26 26 27 27 27 27 28
30 29 29 30 29 29 29 29 29 29 30 30 30 29 29 30 31 31 31 32 33 32 31 32 32 31 31 30 30 29 28 28 28 28 28 28 28 28 29 29 28 29 29
30 30 31 31 31 32 31 31 31 31 32 32 32 32 32 33 34 34 34 34 34 34 34 33 33 32 32 31 31 31 30 29 29 29 29 29 29 29 29 30 30 30 30
32 32 33 33 33 33 33 32 32 33 33 34 35 34 35 36 36 36 36 37 36 36 36 35 34 33 33 33 33 33 32 31 31 30 30 30 31 30 30 31 31 31 31
35 35 35 35 35 35 35 34 34 35 35 36 36 37 37 38 38 38 38 38 39 38 36 36 35 35 34 34 34 34 34 33 32 32 32 32 32 32 32 32 33 33 33
37 37 37 38 38 37 37 37 36 37 38 38 38 38 39 39 40 40 40 39 39 39 38 37 37 36 35 35 35 34 34 34 32 32 32 32 32 32 33 33 33 34 34
38 38 38 38 38 39 38 38 38 39 39 39 39 39 40 41 41 41 41 40 40 40 40 39 38 38 37 37 36 34 34 33 33 33 33 33 33 33 34 34 34 34 35
40 40 40 40 40 40 40 39 40 40 40 40 40 40 41 41 41 41 41 40 40 40 40 40 39 38 37 36 36 35 34 34 34 35 35 35 35 35 35 35 35 35 36
Wind_Direction
22 24 23 23 24 23 22 20 19 19 17 17 16 17 12 4 355 338 307 284 270 266 264 261 260 261 260 257 253 251 250 253 254 259 262 266 267 268 270 273 274 270 272
19 21 20 19 19 19 18 18 16 15 13 14 13 12 9 5 358 353 333 307 284 272 272 267 266 264 262 259 258 256 253 257 258 261 265 269 270 270 269 269 270 272 273
14 15 15 14 14 13 13 13 13 13 11 11 10 9 6 2 358 350 341 328 312 294 283 278 271 266 263 261 261 263 258 259 259 261 265 269 271 272 273 271 271 274 274
6 9 9 9 9 10 11 11 10 10 8 8 7 5 2 358 355 350 341 339 332 309 293 284 279 274 272 265 267 269 269 266 264 266 267 269 271 271 272 270 271 274 275
356 360 3 5 6 7 8 6 7 7 7 6 5 2 359 357 354 352 344 343 339 326 311 302 293 287 281 275 273 275 274 270 269 269 269 271 272 273 275 273 272 272 273
344 350 355 358 1 3 4 4 5 5 4 4 3 0 358 357 353 350 347 343 343 338 319 308 302 295 287 282 280 278 280 275 275 275 274 273 275 276 276 276 274 274 274
331 338 346 351 353 358 360 2 2 2 2 1 360 358 357 357 357 354 351 347 343 340 331 318 308 303 295 289 287 284 284 281 278 278 277 277 277 277 275 275 274 273 274
318 323 332 344 344 349 355 357 358 359 359 359 358 357 356 357 356 355 354 350 345 340 335 331 324 317 310 303 297 293 290 288 287 283 280 280 279 279 278 276 275 276 276
303 314 325 334 339 343 349 351 353 355 356 356 356 357 355 354 356 355 352 348 345 341 337 332 329 325 320 310 301 298 296 294 293 290 288 286 285 283 282 281 278 276 276
290 301 312 320 330 336 341 344 346 348 351 353 355 355 354 351 351 351 349 345 341 337 334 330 326 322 319 313 303 298 298 297 294 292 291 288 287 286 286 286 284 281 279
288 292 298 309 320 327 332 336 339 341 344 348 350 352 353 352 348 346 344 341 338 336 332 331 326 319 313 309 306 302 299 297 295 294 294 292 289 290 288 288 288 287 285
282 289 297 305 313 317 324 328 332 334 336 339 343 345 345 346 346 346 344 341 338 336 332 330 328 324 317 311 308 305 303 299 297 297 294 292 290 289 290 290 289 289 288
278 284 295 302 305 310 315 320 324 326 328 330 333 337 337 339 340 341 341 340 339 336 333 329 328 324 320 313 310 307 304 303 296 297 295 291 289 290 289 289 289 288 288
269 276 285 290 296 303 307 312 315 316 319 322 325 327 329 331 331 333 334 333 332 331 329 327 325 323 320 316 310 305 306 303 301 298 296 292 290 289 289 288 289 290 290
267 270 275 282 288 293 297 302 306 309 311 314 317 320 321 323 325 326 327 327 328 328 326 324 323 320 317 315 314 312 310 306 303 301 299 294 292 291 290 288 288 289 290
267 268 271 276 282 286 289 292 297 301 304 307 309 314 316 317 317 319 321 322 322 322 322 321 322 321 319 314 312 311 308 305 304 302 301 297 294 295 293 290 288 287 288
264 265 267 272 276 281 284 287 289 294 297 299 302 306 309 311 312 313 315 318 320 320 319 318 317 316 315 313 310 308 307 305 304 303 301 301 299 297 296 293 291 290 290
263 265 267 270 272 277 281 283 285 288 291 292 294 298 301 305 307 309 311 312 315 317 316 315 314 312 311 310 309 306 306 305 303 302 302 301 300 298 297 294 292 291 291
262 264 266 270 272 274 279 281 283 285 286 287 289 292 295 299 302 305 309 310 313 313 314 313 312 311 309 308 307 305 302 302 301 300 299 299 298 298 297 295 293 292 292
259 262 265 268 271 274 276 278 280 282 283 285 287 290 293 297 300 303 305 308 309 310 312 313 312 311 309 307 306 304 301 299 298 296 295 296 297 296 295 294 293 293 293
260 262 264 266 269 272 275 277 278 279 281 283 286 288 291 295 297 301 302 304 307 307 308 309 309 309 307 305 303 303 301 299 298 296 294 294 296 297 297 295 293 292 292
263 264 264 265 268 271 273 276 277 278 279 281 283 286 289 292 295 298 300 302 303 305 306 306 306 306 307 305 301 301 301 299 297 295 294 294 294 295 295 295 295 294 294
261 263 264 265 267 269 272 274 276 276 277 279 281 284 287 289 292 294 296 298 300 302 303 303 303 302 303 303 303 301 301 300 298 297 295 295 294 293 293 293 294 294 294
259 262 264 266 267 269 270 272 275 275 276 277 279 282 284 287 289 291 292 294 296 298 300 301 300 300 301 301 301 301 301 300 297 296 297 296 295 294 294 293 294 294 294
259 261 264 266 267 269 270 272 273 275 276 276 277 279 283 285 288 290 291 292 293 296 297 298 298 299 299 300 300 301 301 299 297 296 295 295 295 294 295 295 295 294 294
259 261 263 266 267 268 270 272 273 274 275 276 278 279 282 284 286 288 289 290 291 293 295 296 297 298 298 299 300 299 299 299 299 298 296 294 293 294 295 295 295 295 295
Height
5927 5925 5923 5921 5919 5917 5915 5913 5910 5909 5907 5905 5903 5902 5901 5899 5899 5898 5898 5898 5898 5898 5899 5899 5900 5901 5901 5902 5902 5903 5903 5904 5904 5905 5905 5905 5905 5906 5905 5905 5906 5906 5906
5928 5926 5924 5922 5920 5918 5916 5914 5912 5910 5908 5906 5904 5903 5901 5900 5899 5898 5897 5897 5897 5897 5897 5898 5898 5899 5899 5900 5900 5901 5901 5902 5902 5903 5903 5903 5904 5903 5903 5903 5903 5904 5904
5930 5928 5925 5923 5922 5920 5918 5916 5914 5911 5909 5907 5905 5903 5902 5900 5899 5898 5897 5896 5896 5896 5896 5896 5897 5897 5897 5898 5898 5898 5899 5899 5900 5900 5901 5901 5901 5901 5901 5901 5901 5901 5901
5930 5928 5926 5924 5923 5921 5919 5917 5915 5912 5910 5908 5906 5904 5902 5901 5899 5898 5897 5896 5896 5895 5895 5895 5895 5895 5895 5895 5895 5896 5896 5896 5897 5897 5897 5898 5898 5898 5898 5898 5898 5898 5898
5931 5929 5927 5925 5923 5921 5920 5918 5915 5913 5911 5909 5907 5905 5903 5901 5899 5898 5897 5896 5895 5895 5894 5894 5894 5893 5893 5893 5893 5893 5893 5894 5894 5894 5894 5894 5894 5894 5895 5895 5895 5894 5894
5931 5929 5928 5926 5924 5922 5920 5918 5916 5914 5912 5909 5907 5905 5903 5901 5899 5898 5896 5896 5895 5894 5893 5893 5892 5892 5891 5891 5891 5891 5890 5890 5891 5890 5890 5890 5891 5891 5891 5891 5891 5890 5890
5931 5929 5928 5926 5924 5922 5921 5919 5917 5914 5912 5910 5908 5905 5903 5901 5899 5897 5896 5896 5895 5894 5892 5891 5890 5890 5889 5889 5888 5888 5887 5887 5887 5887 5887 5887 5887 5886 5887 5887 5886 5886 5886
5930 5928 5927 5926 5924 5922 5920 5919 5917 5915 5913 5910 5908 5905 5903 5901 5900 5898 5897 5895 5894 5893 5891 5890 5889 5888 5887 5887 5886 5885 5884 5884 5884 5884 5883 5883 5883 5882 5882 5882 5882 5882 5882
5929 5927 5926 5925 5923 5922 5920 5919 5917 5915 5913 5910 5908 5906 5904 5902 5900 5898 5896 5895 5893 5892 5890 5889 5887 5886 5885 5884 5883 5883 5882 5881 5881 5880 5880 5879 5878 5878 5878 5877 5877 5877 5877
5925 5925 5925 5924 5923 5921 5920 5918 5916 5915 5913 5910 5908 5906 5903 5901 5899 5898 5896 5894 5892 5891 5889 5887 5886 5885 5883 5882 5881 5880 5879 5879 5877 5877 5876 5875 5874 5873 5873 5873 5872 5872 5871
5923 5922 5921 5921 5921 5920 5919 5917 5916 5914 5912 5910 5908 5906 5904 5901 5899 5897 5895 5893 5891 5889 5888 5886 5884 5883 5881 5879 5878 5877 5876 5875 5874 5873 5872 5871 5870 5869 5869 5868 5867 5867 5866
5921 5920 5918 5918 5919 5918 5917 5916 5915 5913 5911 5910 5908 5905 5903 5901 5899 5897 5895 5893 5890 5888 5886 5884 5882 5880 5878 5876 5875 5873 5872 5871 5870 5869 5867 5867 5866 5865 5864 5863 5863 5862 5861
5919 5917 5915 5917 5917 5916 5915 5914 5913 5912 5910 5908 5906 5904 5902 5900 5898 5896 5894 5891 5889 5887 5884 5882 5880 5878 5875 5873 5872 5870 5869 5866 5865 5864 5863 5862 5861 5860 5859 5858 5857 5856 5855
5916 5915 5914 5915 5915 5914 5913 5912 5911 5910 5908 5907 5905 5903 5901 5899 5897 5894 5892 5890 5887 5884 5882 5879 5877 5875 5873 5870 5868 5866 5865 5863 5861 5860 5859 5857 5856 5855 5853 5852 5851 5850 5849
5912 5912 5912 5912 5912 5911 5910 5909 5908 5907 5906 5904 5902 5900 5898 5896 5894 5892 5890 5887 5884 5882 5879 5876 5874 5871 5869 5867 5864 5862 5860 5859 5857 5855 5853 5852 5850 5849 5847 5846 5845 5844 5843
5907 5907 5907 5907 5907 5907 5907 5906 5905 5904 5902 5901 5899 5898 5896 5893 5891 5889 5886 5884 5881 5878 5875 5873 5870 5867 5865 5863 5860 5858 5856 5854 5852 5850 5848 5846 5845 5843 5841 5840 5838 5837 5836
5901 5902 5902 5902 5903 5902 5902 5901 5901 5900 5898 5897 5895 5894 5892 5889 5887 5885 5882 5880 5877 5874 5872 5869 5866 5863 5861 5858 5855 5853 5851 5849 5847 5844 5842 5841 5839 5837 5835 5833 5832 5830 5829
5895 5896 5896 5896 5896 5897 5896 5896 5895 5895 5893 5892 5891 5889 5887 5885 5883 5880 5878 5875 5873 5870 5867 5864 5862 5859 5856 5853 5850 5848 5846 5843 5841 5839 5837 5835 5832 5831 5829 5827 5826 5824 5822
5889 5890 5890 5890 5889 5890 5890 5890 5889 5889 5887 5886 5885 5883 5881 5879 5877 5875 5873 5870 5867 5864 5861 5859 5856 5853 5850 5847 5844 5842 5839 5837 5835 5833 5831 5828 5826 5824 5822 5820 5818 5816 5814
5881 5883 5883 5884 5883 5884 5884 5883 5883 5882 5881 5879 5878 5876 5875 5873 5871 5869 5866 5864 5861 5858 5855 5852 5849 5846 5843 5841 5838 5835 5832 5831 5828 5826 5824 5822 5820 5817 5815 5813 5811 5809 5807
5873 5875 5876 5876 5876 5876 5876 5876 5876 5875 5874 5872 5871 5869 5868 5867 5865 5862 5860 5857 5854 5851 5848 5845 5842 5839 5836 5833 5831 5828 5825 5823 5821 5819 5817 5815 5812 5810 5807 5805 5803 5801 5799
5865 5867 5868 5868 5868 5868 5868 5868 5867 5867 5866 5865 5863 5861 5860 5859 5857 5855 5852 5849 5847 5844 5841 5838 5835 5832 5829 5826 5823 5820 5817 5815 5812 5811 5809 5807 5804 5802 5799 5797 5795 5793 5790
5857 5858 5859 5859 5860 5860 5860 5859 5859 5858 5857 5856 5854 5853 5852 5850 5848 5846 5844 5841 5838 5835 5832 5830 5827 5824 5821 5818 5815 5812 5810 5807 5804 5802 5800 5798 5796 5794 5791 5789 5786 5784 5782
5848 5848 5849 5850 5850 5850 5850 5850 5849 5848 5847 5846 5845 5844 5842 5841 5839 5837 5835 5832 5829 5826 5823 5821 5818 5815 5813 5810 5807 5804 5801 5798 5796 5794 5792 5790 5787 5785 5782 5780 5777 5775 5772
5837 5838 5839 5839 5839 5839 5839 5839 5839 5838 5837 5835 5834 5833 5832 5831 5829 5827 5825 5822 5820 5817 5814 5812 5809 5807 5804 5801 5798 5795 5792 5790 5788 5785 5783 5781 5778 5776 5773 5770 5768 5765 5763
5826 5828 5828 5828 5829 5829 5829 5829 5828 5828 5827 5825 5824 5823 5822 5820 5819 5817 5815 5812 5810 5807 5804 5802 5799 5797 5794 5792 5789 5786 5783 5781 5779 5776 5774 5771 5769 5766 5763 5761 5758 5755 5753